Smyrna, TN

3:20 AM CDT on March 27, 2017 (GMT -0500)
Smyrna

Weather History for KMQY - April, 2014

Change the Weather History Date:

Tuesday, April 22, 2014

  Actual Average Record
Temperature  
Mean Temperature 66 °F -  
Max Temperature 77 °F 67 °F 83 °F (2008)
Min Temperature 55 °F 50 °F 36 °F (2009)
Cooling Degree Days 1    
Growing Degree Days 16 (Base 50)    
Moisture  
Dew Point 57 °F    
Average Humidity 75    
Maximum Humidity 100    
Minimum Humidity 41    
Precipitation  
Precipitation 0.01 in - - ()
Sea Level Pressure  
Sea Level Pressure 29.91 in    
Wind  
Wind Speed 6 mph (WNW)    
Max Wind Speed 16 mph    
Max Gust Speed 18 mph    
Visibility 10 miles    
Events Rain    
Averages and records for this station are not official NWS values.
T = Trace of Precipitation, MM = Missing Value Source: NWS Daily Summary

Daily Weather History Graph

Daily Weather History Graph

Search for Another Location

Airport or City:

Trip Planner

Search our weather history database for the weather conditions in past years. The results will help you decide how hot, cold, wet, or windy it might be!

Date:

Astronomy

Apr. 22, 2014 Rise Set
Actual Time 6:04 AM CDT 7:25 PM CDT
Civil Twilight 5:37 AM CDT 7:52 PM CDT
Nautical Twilight 5:05 AM CDT 8:24 PM CDT
Astronomical Twilight 4:31 AM CDT 8:58 PM CDT
Moon 1:39 AM CDT (4/22) 12:39 PM CDT (4/22)
Length of Visible Light 14h 15m
Length of Day
13h 21m
Last Quarter, 46% of the Moon is Illuminated
Apr 22
Last Quarter
Apr 29
New
May 6
First Quarter
May 14
Full
May 21
Last Quarter

Hourly Weather History & Observations

Time (CDT) Temp. Dew Point Humidity Pressure Visibility Wind Dir Wind Speed Gust Speed Precip Events Conditions
12:56 AM 63.9 °F 59.0 °F 84% 29.94 in 10.0 mi SSW 3.5 mph - 0.00 in   Mostly Cloudy
1:56 AM 61.9 °F 61.0 °F 97% 29.92 in 10.0 mi SSE 3.5 mph - N/A   Mostly Cloudy
2:56 AM 63.9 °F 59.9 °F 87% 29.92 in 10.0 mi WSW 12.7 mph 18.4 mph 0.00 in Rain Light Rain
3:56 AM 63.0 °F 59.9 °F 90% 29.92 in 10.0 mi WSW 8.1 mph - 0.00 in   Mostly Cloudy
4:56 AM 63.0 °F 59.9 °F 90% 29.91 in 10.0 mi WSW 6.9 mph - N/A   Mostly Cloudy
5:56 AM 61.9 °F 61.0 °F 97% 29.91 in 10.0 mi SW 4.6 mph - N/A   Mostly Cloudy
6:56 AM 61.9 °F 61.9 °F 100% 29.92 in 10.0 mi WSW 3.5 mph - N/A   Scattered Clouds
7:56 AM 63.9 °F 61.0 °F 90% 29.92 in 10.0 mi West 4.6 mph - N/A   Mostly Cloudy
8:26 AM 64.4 °F 60.8 °F 88% 29.90 in 10.0 mi WSW 6.9 mph - N/A   Overcast
8:44 AM 64.4 °F 60.8 °F 88% 29.90 in 10.0 mi West 3.5 mph - N/A   Overcast
8:56 AM 64.9 °F 61.0 °F 87% 29.93 in 10.0 mi WNW 4.6 mph - N/A   Overcast
9:20 AM 64.4 °F 62.6 °F 94% 29.91 in 10.0 mi West 6.9 mph - 0.01 in Rain Light Rain
9:56 AM 63.9 °F 61.9 °F 93% 29.94 in 10.0 mi WNW 6.9 mph - 0.01 in   Overcast
10:56 AM 64.9 °F 61.9 °F 90% 29.94 in 10.0 mi NW 5.8 mph - N/A   Overcast
11:21 AM 66.2 °F 62.6 °F 88% 29.92 in 10.0 mi NW 8.1 mph - N/A   Overcast
11:33 AM 66.2 °F 62.6 °F 88% 29.92 in 10.0 mi NW 5.8 mph - N/A   Overcast
11:56 AM 66.9 °F 61.9 °F 84% 29.94 in 10.0 mi WNW 6.9 mph - N/A   Overcast
12:56 PM 70.0 °F 63.0 °F 78% 29.91 in 10.0 mi West 5.8 mph - N/A   Scattered Clouds
1:20 PM 71.6 °F 62.6 °F 73% 29.88 in 10.0 mi NW 3.5 mph - N/A   Mostly Cloudy
1:39 PM 73.4 °F 62.6 °F 69% 29.88 in 10.0 mi Variable 3.5 mph - N/A   Scattered Clouds
1:56 PM 73.9 °F 61.9 °F 66% 29.89 in 10.0 mi Calm Calm - N/A   Scattered Clouds
2:56 PM 75.9 °F 59.9 °F 57% 29.87 in 10.0 mi North 8.1 mph - N/A   Scattered Clouds
3:56 PM 77.0 °F 57.9 °F 52% 29.86 in 10.0 mi NNW 12.7 mph - N/A   Scattered Clouds
4:56 PM 77.0 °F 54.9 °F 46% 29.86 in 10.0 mi North 16.1 mph - N/A   Clear
5:56 PM 75.9 °F 54.0 °F 46% 29.87 in 10.0 mi North 11.5 mph - N/A   Partly Cloudy
6:56 PM 72.0 °F 46.9 °F 41% 29.88 in 10.0 mi NNW 12.7 mph - N/A   Clear
7:56 PM 66.9 °F 45.9 °F 47% 29.91 in 10.0 mi North 10.4 mph - N/A   Clear
8:56 PM 64.9 °F 43.9 °F 46% 29.94 in 10.0 mi North 11.5 mph - N/A   Clear
9:56 PM 61.9 °F 41.9 °F 48% 29.97 in 10.0 mi North 9.2 mph - N/A   Clear
10:56 PM 55.9 °F 41.9 °F 59% 29.98 in 10.0 mi North 8.1 mph - N/A   Clear
11:56 PM 55.9 °F 41.0 °F 57% 29.99 in 10.0 mi North 9.2 mph - N/A   Clear